Location: Fort Worth, Tx
(32.7431°N, 97.3695°W)
Time: 19:17:07
(UTC-04:00)

Transit 4A - Pass Details

Date: 02 March 2024
Orbit: 871 x 972 km, 66.8° (Epoch: 22 April)

Event Time Altitude Azimuth Distance (km) Brightness Sun altitude
Rises 01:17:11 0° 214° (SW) 3,617 - -63.6°
Reaches altitude 10° 01:19:47 10° 218° (SW) 2,662 - -63.8°
Maximum altitude 01:25:54 60° 298° (WNW) 1,055 - -64.0°
Drops below altitude 10° 01:31:54 10° 18° (NNE) 2,606 - -64.2°
Sets 01:34:26 0° 22° (NNE) 3,536 - -64.2°
